Weather History for Sanford, NC

Change the Weather History Date:

Friday, February 22, 2013

  Actual Average (KRDU) Record (KRDU)
Temperature  
Mean Temperature 40 °F 46 °F  
Max Temperature 42 °F 57 °F 75 °F (1897)
Min Temperature 34 °F 35 °F 11 °F (1968)
Degree Days  
Heating Degree Days 26 19  
Month to date heating degree days 465  
Since 1 July heating degree days 2462  
Cooling Degree Days 0 0  
Month to date cooling degree days 0  
Year to date cooling degree days 0  
Moisture  
Dew Point 33 °F    
Average Humidity 88    
Maximum Humidity 97    
Minimum Humidity 37    
Precipitation  
Precipitation 0.42 in 0.13 in 1.40 in (1889)
Month to date precipitation 2.50  
Year to date precipitation 6.00  
Snow  
Snow 0.00 in 0.10 in 3.20 in (1978)
Month to date snowfall 1.6  
Since 1 July snowfall 5.2  
Snow Depth -    
Sea Level Pressure  
Sea Level Pressure 30.26 in    
Wind  
Wind Speed 3 mph (NE)    
Max Wind Speed 8 mph    
Max Gust Speed -    
Visibility 6 miles    
Events Rain    
T = Trace of Precipitation, MM = Missing Value Source: NWS Daily Summary

Daily Weather History Graph

Daily Weather History Graph

Search for Another Location

Airport:

Trip Planner

Search our weather history database for the weather conditions in past years. The results will help you decide how hot, cold, wet, or windy it might be!

Date:

Astronomy

Feb. 22, 2013 Rise Set
Actual Time 6:54 AM EST 6:05 PM EST
Civil Twilight 6:28 AM EST 6:31 PM EST
Nautical Twilight 5:59 AM EST 7:00 PM EST
Astronomical Twilight 5:29 AM EST 7:30 PM EST
Moon 3:18 PM EST (2/22) 4:34 AM EST (2/22)
Length of Visible Light 12h 02m
Length of Day
11h 10m
Waxing Gibbous, 90% of the Moon is Illuminated
Feb 22
Waxing Gibbous
Feb 25
Full
Mar 4
Last Quarter
Mar 11
New
Mar 19
First Quarter

Hourly Weather History & Observations

Time (EST) Temp. Windchill Dew Point Humidity Pressure Visibility Wind Dir Wind Speed Gust Speed Precip Events Conditions
12:15 AM 45.0 °F - 20.1 °F 37% 30.25 in 10.0 mi Calm Calm - N/A   Overcast
12:35 AM 45.1 °F - 20.1 °F 37% 30.27 in 10.0 mi Calm Calm - N/A Rain Light Rain
12:55 AM 42.4 °F - 30.6 °F 63% 30.30 in 10.0 mi Calm Calm - N/A Rain Rain
1:15 AM 42.1 °F 39.2 °F 30.7 °F 64% 30.35 in 10.0 mi NW 4.6 mph - N/A Rain Light Rain
1:35 AM 41.0 °F - 30.7 °F 67% 30.34 in 10.0 mi Calm Calm - N/A   Overcast
1:55 AM 40.3 °F 37.1 °F 29.8 °F 66% 30.31 in 10.0 mi NE 4.6 mph - N/A Rain Rain
2:15 AM 38.3 °F 34.8 °F 32.0 °F 78% 30.29 in 5.0 mi NE 4.6 mph - 0.03 in Rain Rain
2:35 AM 37.8 °F 34.2 °F 32.5 °F 81% 30.30 in 5.0 mi NNE 4.6 mph - 0.06 in Rain Rain
2:55 AM 37.2 °F 33.6 °F 34.0 °F 88% 30.30 in 5.0 mi North 4.6 mph - 0.09 in Rain Rain
3:15 AM 37.2 °F - 34.2 °F 89% 30.33 in 5.0 mi Calm Calm - 0.04 in Rain Rain
3:35 AM 36.5 °F - 34.0 °F 91% 30.34 in 3.0 mi Calm Calm - 0.08 in Rain Rain
3:55 AM 36.5 °F 33.9 °F 34.2 °F 91% 30.32 in 5.0 mi ENE 3.5 mph - 0.10 in Rain Rain
4:15 AM 36.0 °F 31.1 °F 34.0 °F 93% 30.28 in 4.0 mi NE 5.8 mph - 0.02 in Rain Heavy Rain
4:35 AM 35.6 °F 32.8 °F 33.3 °F 91% 30.29 in 4.0 mi NNE 3.5 mph - 0.07 in Rain Rain
4:55 AM 35.6 °F 32.8 °F 33.1 °F 91% 30.28 in 5.0 mi East 3.5 mph - 0.09 in Rain Rain
5:15 AM 34.9 °F 32.0 °F 32.9 °F 92% 30.27 in 5.0 mi ENE 3.5 mph - 0.02 in Rain Light Rain
5:35 AM 34.9 °F 32.0 °F 32.9 °F 92% 30.27 in 10.0 mi East 3.5 mph - 0.02 in Rain Rain
5:55 AM 34.7 °F 31.8 °F 32.7 °F 92% 30.27 in 7.0 mi ESE 3.5 mph - 0.03 in Rain Light Rain
6:15 AM 34.7 °F 31.8 °F 32.5 °F 92% 30.28 in 10.0 mi ESE 3.5 mph - N/A Rain Light Rain
6:35 AM 34.2 °F 29.0 °F 32.2 °F 92% 30.27 in 10.0 mi NNE 5.8 mph - N/A   Light Drizzle
7:15 AM 34.0 °F - 32.0 °F 92% 30.30 in 10.0 mi Calm Calm - N/A   Light Drizzle
7:35 AM 34.2 °F - 32.2 °F 92% 30.32 in 10.0 mi Calm Calm - N/A   Light Drizzle
7:55 AM 34.5 °F 31.6 °F 32.5 °F 92% 30.34 in 10.0 mi North 3.5 mph - N/A   Overcast
8:15 AM 34.7 °F - 32.2 °F 91% 30.32 in 10.0 mi Calm Calm - N/A   Overcast
8:35 AM 34.9 °F 32.0 °F 32.9 °F 92% 30.33 in 10.0 mi North 3.5 mph - N/A   Mostly Cloudy
8:55 AM 35.2 °F - 32.9 °F 91% 30.34 in 10.0 mi Calm Calm - N/A   Mostly Cloudy
9:15 AM 35.4 °F 31.5 °F 32.2 °F 88% 30.33 in 10.0 mi NE 4.6 mph - N/A   Mostly Cloudy
9:35 AM 35.6 °F 30.7 °F 32.7 °F 89% 30.31 in 10.0 mi ENE 5.8 mph - N/A Rain Light Rain
9:55 AM 35.2 °F 31.2 °F 32.4 °F 89% 30.29 in 10.0 mi ENE 4.6 mph - N/A   Mostly Cloudy
10:15 AM 35.8 °F 30.9 °F 32.9 °F 89% 30.29 in 10.0 mi NE 5.8 mph - N/A   Overcast
10:55 AM 36.1 °F 33.5 °F 32.2 °F 86% 30.30 in 10.0 mi ENE 3.5 mph - N/A   Overcast
11:15 AM 36.7 °F 34.1 °F 32.4 °F 84% 30.30 in 10.0 mi ENE 3.5 mph - N/A   Overcast
11:35 AM 37.4 °F - 32.7 °F 83% 30.30 in 10.0 mi Calm Calm - N/A   Overcast
11:55 AM 37.6 °F - 32.4 °F 81% 30.30 in 10.0 mi Calm Calm - N/A   Overcast
12:15 PM 37.4 °F - 32.0 °F 81% 30.29 in 10.0 mi Calm Calm - N/A   Overcast
12:35 PM 37.6 °F - 32.4 °F 81% 30.29 in 10.0 mi Calm Calm - N/A   Overcast
12:55 PM 37.4 °F 34.9 °F 32.9 °F 84% 30.27 in 10.0 mi NE 3.5 mph - N/A   Light Drizzle
1:15 PM 37.9 °F 33.5 °F 33.1 °F 83% 30.25 in 10.0 mi NNE 5.8 mph - N/A   Overcast
1:35 PM 38.3 °F 33.9 °F 32.7 °F 80% 30.24 in 10.0 mi ENE 5.8 mph - N/A   Overcast
1:55 PM 38.3 °F 33.9 °F 32.7 °F 80% 30.24 in 10.0 mi NNE 5.8 mph - N/A   Overcast
2:15 PM 37.8 °F - 34.0 °F 86% 30.22 in 3.0 mi Calm Calm - 0.01 in Rain Rain
2:35 PM 38.3 °F 35.9 °F 35.6 °F 90% 30.21 in 10.0 mi NE 3.5 mph - 0.02 in   Mostly Cloudy
2:55 PM 37.9 °F 32.7 °F 35.4 °F 91% 30.21 in 5.0 mi NNE 6.9 mph - 0.02 in   Drizzle
3:15 PM 37.4 °F 31.4 °F 35.1 °F 91% 30.21 in 2.5 mi NNE 8.1 mph - 0.01 in Rain Rain
3:35 PM 37.4 °F 33.8 °F 35.6 °F 93% 30.22 in 1.2 mi ENE 4.6 mph - 0.04 in Rain Rain
3:55 PM 37.4 °F 34.9 °F 35.6 °F 93% 30.23 in 2.0 mi North 3.5 mph - 0.05 in Rain Light Rain
4:15 PM 37.4 °F - 35.6 °F 93% 30.23 in 1.8 mi Calm Calm - N/A Rain Light Rain
4:35 PM 37.0 °F 33.3 °F 35.6 °F 95% 30.22 in 2.5 mi NNE 4.6 mph - N/A   Drizzle
4:55 PM 36.7 °F 32.9 °F 35.6 °F 96% 30.22 in 2.5 mi NE 4.6 mph - N/A Rain Rain
5:15 PM 36.7 °F - 35.6 °F 96% 30.21 in 2.5 mi Calm Calm - N/A   Drizzle
5:35 PM 36.9 °F 34.3 °F 35.6 °F 95% 30.21 in 2.5 mi NNE 3.5 mph - 0.01 in   Drizzle
6:15 PM 36.5 °F 31.8 °F 35.6 °F 97% 30.21 in 3.0 mi NNE 5.8 mph - N/A   Drizzle
6:35 PM 36.5 °F 32.7 °F 35.2 °F 95% 30.21 in 3.0 mi NNE 4.6 mph - N/A   Drizzle
6:55 PM 36.3 °F 32.5 °F 35.1 °F 95% 30.19 in 2.5 mi NE 4.6 mph - N/A Rain Light Rain
7:15 PM 36.3 °F 33.7 °F 35.1 °F 95% 30.19 in 2.5 mi NE 3.5 mph - N/A Rain Light Rain
7:35 PM 36.5 °F - 35.6 °F 97% 30.18 in 3.0 mi Calm Calm - N/A Rain Light Rain
7:55 PM 36.5 °F 33.9 °F 35.6 °F 97% 30.18 in 3.0 mi NNE 3.5 mph - N/A Rain Light Rain
8:15 PM 36.7 °F 32.0 °F 35.8 °F 97% 30.19 in 3.0 mi NNW 5.8 mph - N/A   Overcast
8:35 PM 36.7 °F 32.0 °F 35.8 °F 97% 30.19 in 3.0 mi North 5.8 mph - N/A   Drizzle
9:15 PM 36.9 °F 32.2 °F 36.0 °F 97% 30.18 in 2.0 mi NNE 5.8 mph - 0.01 in   Heavy Drizzle
9:35 PM 36.7 °F 32.9 °F 35.8 °F 97% 30.18 in 3.0 mi NE 4.6 mph - 0.02 in   Heavy Drizzle
10:15 PM 36.9 °F 33.1 °F 36.0 °F 97% 30.18 in 3.0 mi NNE 4.6 mph - N/A   Drizzle
10:35 PM 36.9 °F 33.1 °F 36.0 °F 97% 30.17 in 3.0 mi NNE 4.6 mph - 0.01 in   Drizzle
10:55 PM 37.0 °F 33.3 °F 36.1 °F 97% 30.18 in 4.0 mi North 4.6 mph - 0.01 in   Light Drizzle
11:15 PM 37.4 °F 32.1 °F 36.5 °F 97% 30.17 in 3.0 mi North 6.9 mph - N/A   Drizzle
11:35 PM 37.0 °F 33.3 °F 36.1 °F 97% 30.15 in 4.0 mi North 4.6 mph - N/A Rain Rain
11:55 PM 37.0 °F 34.5 °F 36.1 °F 97% 30.14 in 4.0 mi NE 3.5 mph - N/A   Light Drizzle